www.pogodaiklimat.ru

Погода и климат >> Архив погоды >> Великобритания >> Южный Уист


ПОГОДА на Южном Уисте

  • Прогноз погоды на Южном Уисте
  • Монитор погоды на Южном Уисте

АРХИВ ПОГОДЫ на Южном Уисте

Время (UTC), дата Ветер
(напр.,м/с)
 
Видим.   Явления Облачность Т
(С)
Тd
(С)
f
(%)
Тe
(С)
Тes
(С)
Комфортность P
(гПа)
Po
(гПа)
Тmin
(С)
Tmax
(С)
R
(мм)
R24
(мм)
S
(см)
01 20.05 СЗ 4 >70 км н/о +9.9 +7.5 85 +7 +7 1012.3 1011.8
02 20.05 СЗ 4 >70 км н/о +9.8 +7.4 85 +7 +7 1012.2 1011.8
03 20.05 СЗ 5 70 км н/о +9.8 +7.7 87 +7 +7 1012.3 1011.8
04 20.05 СЗ 5 60 км н/о +10.0 +8.1 88 +7 +7 1012.4 1011.9
05 20.05 СЗ 4 65 км н/о +9.6 +7.8 89 +7 +7 1012.7 1012.2
06 20.05 СЗ 5 >70 км н/о +10.1 +8.1 87 +7 +7 1013.0 1012.5 +9.5
07 20.05 СЗ 4 >70 км н/о +10.3 +7.8 84 +8 +8 1013.3 1012.8
08 20.05 СЗ 5 >70 км н/о +10.8 +8.2 84 +8 +8 1013.7 1013.2
09 20.05 СЗ 4 >70 км н/о +11.1 +8.4 83 +9 +9 1013.9 1013.4
10 20.05 СЗ 4 >70 км н/о +11.4 +7.9 79 +9 +9 1014.3 1013.9
11 20.05 З 4 >70 км н/о +12.1 +8.6 79 +10 +10 1014.6 1014.1
12 20.05 З 5 >70 км н/о +12.0 +8.4 79 +10 +10 1014.8 1014.4
13 20.05 СЗ 6 >70 км н/о +12.1 +8.3 78 +10 +10 1015.1 1014.6
14 20.05 З 6 >70 км н/о +12.2 +8.6 79 +10 +10 1015.4 1014.9
15 20.05 СЗ 6 >70 км н/о +12.2 +8.3 77 +10 +10 1015.7 1015.2
16 20.05 СЗ 5 >70 км н/о +12.1 +8.4 78 +10 +10 1015.9 1015.4
17 20.05 СЗ 6 >70 км н/о +11.6 +7.7 77 +9 +9 1016.2 1015.7
18 20.05 СЗ 6 >70 км н/о +11.3 +8.0 80 +8 +8 1016.5 1016.0 +12.8
19 20.05 С 4 >70 км н/о +10.5 +7.1 79 +8 +8 1016.9 1016.4
20 20.05 СЗ 4 >70 км н/о +10.4 +7.1 80 +8 +8 1017.0 1016.5
21 20.05 СЗ 3 >70 км н/о +9.4 +7.1 86 +7 +7 1017.4 1016.9
22 20.05 СЗ 3 >70 км н/о +9.0 +6.9 87 +6 +6 1017.5 1017.1
23 20.05 С 2 >70 км н/о +9.7 +7.4 86 +8 +8 1017.9 1017.4
00 21.05 СЗ 3 >70 км н/о +9.8 +7.5 86 +8 +8 1018.0 1017.5
01 21.05 СЗ 3 >70 км н/о +9.9 +7.3 84 +8 +8 1018.0 1017.5
02 21.05 СЗ 2 >70 км н/о +9.5 +6.9 84 +8 +8 1018.3 1017.8
03 21.05 СЗ 4 900 м сильн. ливневой дождь н/о +8.6 +5.9 83 +5 +5 1018.6 1018.1
04 21.05 С 3 >70 км в посл. час дождь н/о +8.6 +5.8 83 +6 +6 1018.6 1018.1
05 21.05 СЗ 2 >70 км н/о +8.1 +5.3 82 +6 +6 1018.5 1018.0
06 21.05 СЗ 3 >70 км н/о +9.9 +7.2 83 +8 +8 1018.7 1018.2 +8.0 4
07 21.05 СЗ 3 >70 км н/о +10.6 +6.8 77 +9 +9 1018.9 1018.4
08 21.05 СЗ 4 >70 км н/о +11.0 +6.8 75 +9 +9 1019.3 1018.8
09 21.05 СЗ 6 >70 км н/о +10.7 +6.5 75 +8 +8 1019.7 1019.2
10 21.05 СВ 3 29 км слаб. ливневой дождь н/о +10.0 +5.4 73 +8 +8 1019.9 1019.4
11 21.05 СЗ 6 >70 км в посл. час дождь н/о +11.5 +6.8 73 +9 +9 1020.0 1019.5
12 21.05 СЗ 6 >70 км н/о +11.8 +6.7 71 +9 +9 1020.1 1019.6 0.0
13 21.05 СЗ 7 >70 км н/о +11.9 +6.3 69 +9 +9 1020.3 1019.8
14 21.05 СЗ 6 >70 км н/о +12.0 +5.9 66 +10 +10 1020.4 1019.9
15 21.05 СЗ 6 >70 км н/о +12.6 +6.8 68 +10 +10 1020.4 1019.9
16 21.05 СЗ 6 >70 км н/о +12.0 +5.8 66 +9 +9 1020.4 1019.9
17 21.05 СЗ 6 >70 км н/о +11.9 +6.0 67 +9 +9 1020.5 1020.0
18 21.05 СЗ 6 >70 км н/о +11.4 +5.7 68 +9 +9 1020.5 1020.0 +12.7 0.0
19 21.05 СЗ 6 >70 км н/о +11.0 +5.2 67 +8 +8 1020.5 1020.1
20 21.05 СЗ 5 >70 км н/о +10.1 +4.9 70 +7 +7 1020.5 1020.0
21 21.05 СЗ 4 >70 км н/о +9.2 +5.3 77 +6 +6 1020.6 1020.1
22 21.05 СЗ 5 >70 км н/о +9.2 +5.5 78 +6 +6 1020.4 1019.9
23 21.05 СЗ 5 >70 км н/о +9.0 +5.0 76 +6 +6 1020.2 1019.7
00 22.05 СЗ 5 >70 км н/о +9.5 +5.6 77 +6 +6 1020.0 1019.5
01 22.05 СЗ 5 >70 км н/о +9.2 +5.4 77 +6 +6 1019.8 1019.3
02 22.05 СЗ 5 >70 км н/о +9.7 +5.3 74 +7 +7 1019.5 1019.0
03 22.05 СЗ 5 >70 км н/о +9.8 +5.8 76 +7 +7 1019.3 1018.8
04 22.05 СЗ 6 >70 км н/о +9.7 +5.8 77 +6 +6 1019.1 1018.6
05 22.05 СЗ 6 >70 км н/о +9.8 +5.9 77 +6 +6 1018.9 1018.4
06 22.05 СЗ 6 >70 км н/о +9.8 +5.8 76 +6 +6 1018.7 1018.2 +8.7
07 22.05 СЗ 6 >70 км н/о +11.0 +7.1 77 +8 +8 1018.6 1018.1
08 22.05 СЗ 6 >70 км н/о +10.5 +6.0 74 +7 +7 1018.7 1018.2
09 22.05 СЗ 6 >70 км н/о +11.3 +7.4 77 +8 +8 1018.7 1018.2
10 22.05 СЗ 6 >70 км н/о +11.1 +7.1 76 +8 +8 1018.8 1018.3
11 22.05 СЗ 7 >70 км н/о +11.3 +7.1 75 +8 +8 1018.6 1018.1
12 22.05 СЗ 7 >70 км н/о +12.3 +8.0 75 +9 +9 1018.3 1017.8
13 22.05 СЗ 7 >70 км н/о +12.3 +7.0 70 +9 +9 1018.1 1017.6
14 22.05 СЗ 7 >70 км н/о +11.9 +7.1 72 +9 +9 1017.8 1017.4
15 22.05 З 7 >70 км н/о +11.8 +7.2 73 +9 +9 1017.7 1017.2
16 22.05 СЗ 7 >70 км н/о +11.5 +7.4 76 +8 +8 1017.7 1017.2
17 22.05 СЗ 8 >70 км н/о +11.3 +7.7 78 +8 +8 1017.4 1016.9
18 22.05 З 8 >70 км н/о +11.1 +7.6 79 +8 +8 1017.1 1016.6 +13.0
19 22.05 СЗ 8 50 км н/о +10.8 +8.3 85 +7 +7 1016.8 1016.3
20 22.05 З 9 11 км в посл. час дождь н/о +9.7 +8.6 93 +5 +5 1016.5 1016.0
21 22.05 З 6 50 км в посл. час дождь н/о +10.1 +9.0 93 +6 +6 1016.5 1016.0
22 22.05 СЗ 6 >70 км н/о +10.1 +8.0 87 +7 +7 1016.2 1015.7
23 22.05 СЗ 6 >70 км н/о +10.1 +7.7 85 +7 +7 1015.8 1015.3
00 23.05 СЗ 6 50 км н/о +10.0 +7.9 87 +6 +6 1015.5 1015.0 0.6
01 23.05 СЗ 6 >70 км н/о +9.9 +7.7 86 +6 +6 1015.2 1014.7
02 23.05 СЗ 6 70 км н/о +9.9 +7.3 84 +6 +6 1015.1 1014.6
03 23.05 СЗ 6 65 км н/о +9.9 +7.0 82 +6 +6 1014.6 1014.2
04 23.05 СЗ 7 17 км дым н/о +9.3 +7.5 89 +5 +5 1014.5 1014.0
05 23.05 СЗ 6 55 км н/о +9.6 +7.6 87 +6 +6 1014.1 1013.6
06 23.05 СЗ 6 29 км н/о +9.3 +7.8 90 +5 +5 1014.1 1013.6 +9.2 0.6
07 23.05 СЗ 6 10 км дым н/о +9.2 +8.0 92 +5 +5 1014.3 1013.8
08 23.05 СЗ 6 2300 м слаб. морось с дождем н/о +9.1 +8.2 94 +5 +5 1014.3 1013.8
09 23.05 СЗ 6 >70 км в посл. час дождь н/о +9.7 +7.9 89 +6 +6 1014.5 1014.0
10 23.05 СЗ 5 11 км н/о +9.9 +8.1 89 +7 +7 1014.5 1014.0
11 23.05 СЗ 6 >70 км н/о +10.4 +7.2 81 +7 +7 1014.4 1013.9
12 23.05 СЗ 7 35 км н/о +10.3 +6.8 79 +7 +7 1014.5 1014.0 0.2
13 23.05 СЗ 7 >70 км н/о +10.7 +6.8 77 +7 +7 1014.7 1014.2
14 23.05 СЗ 8 >70 км н/о +10.9 +6.7 75 +7 +7 1014.8 1014.3
15 23.05 СЗ 7 >70 км н/о +10.2 +7.3 82 +6 +6 1014.8 1014.3
16 23.05 З 7 >70 км н/о +10.1 +6.8 80 +7 +7 1015.0 1014.5
17 23.05 З 8 >70 км н/о +10.4 +6.5 77 +7 +7 1015.0 1014.6
18 23.05 З 8 >70 км н/о +10.3 +5.8 74 +7 +7 1015.0 1014.5 +11.6 0.2
19 23.05 СЗ 6 60 км н/о +10.1 +5.8 75 +7 +7 1015.2 1014.7
20 23.05 СЗ 7 60 км н/о +9.6 +5.4 75 +6 +6 1015.3 1014.8
21 23.05 СЗ 6 45 км н/о +9.4 +5.4 76 +6 +6 1015.4 1014.9
22 23.05 СЗ 6 45 км н/о +9.2 +5.4 77 +6 +6 1015.7 1015.2
23 23.05 СЗ 6 40 км н/о +9.3 +4.9 74 +6 +6 1016.0 1015.5
00 24.05 СЗ 5 40 км н/о +9.3 +5.1 75 +6 +6 1016.0 1015.6
01 24.05 СЗ 6 45 км н/о +9.2 +5.5 78 +6 +6 1016.2 1015.7
02 24.05 СЗ 6 45 км н/о +9.2 +5.1 76 +6 +6 1016.3 1015.8
03 24.05 СЗ 6 50 км н/о +9.1 +4.5 73 +5 +5 1016.2 1015.7
04 24.05 СЗ 4 45 км н/о +9.1 +4.8 74 +6 +6 1016.1 1015.6
05 24.05 З 5 30 км н/о +9.1 +5.1 76 +6 +6 1016.6 1016.1
06 24.05 СЗ 5 45 км н/о +9.2 +4.7 73 +6 +6 1016.8 1016.3 +9.0
07 24.05 СЗ 4 35 км н/о +9.4 +4.8 73 +7 +7 1017.1 1016.6
08 24.05 СЗ 5 29 км н/о +9.6 +4.8 72 +6 +6 1017.4 1017.0
09 24.05 СЗ 5 26 км н/о +9.7 +5.5 75 +7 +7 1017.7 1017.2
10 24.05 СЗ 6 26 км н/о +9.6 +5.7 77 +6 +6 1017.9 1017.4
11 24.05 З 4 26 км н/о +10.1 +5.8 75 +7 +7 1018.2 1017.7
12 24.05 СЗ 5 30 км н/о +10.8 +6.3 74 +8 +8 1018.4 1017.9
13 24.05 СЗ 5 30 км н/о +10.8 +5.4 69 +8 +8 1018.5 1018.0
14 24.05 СЗ 5 30 км н/о +10.8 +5.3 69 +8 +8 1019.0 1018.5
15 24.05 СЗ 5 25 км н/о +10.5 +5.4 71 +8 +8 1019.1 1018.6
16 24.05 З 5 30 км н/о +10.9 +5.1 67 +8 +8 1019.0 1018.5
17 24.05 СЗ 5 30 км н/о +10.5 +4.8 68 +8 +8 1018.9 1018.4
18 24.05 З 5 30 км н/о +10.3 +5.0 70 +8 +8 1019.2 1018.7 +11.3
19 24.05 С 4 30 км н/о +9.8 +4.4 69 +7 +7 1019.0 1018.5
20 24.05 З 4 30 км н/о +9.6 +4.4 70 +7 +7 1019.4 1018.9
21 24.05 СЗ 2 30 км н/о +9.4 +4.1 69 +8 +8 1019.4 1018.9
22 24.05 СЗ 3 35 км н/о +9.5 +4.2 69 +7 +7 1019.7 1019.2
23 24.05 СЗ 2 30 км н/о +9.3 +4.6 72 +8 +8 1019.4 1018.9
00 25.05 СЗ 1 30 км н/о +9.0 +4.7 74 +9 +9 1019.1 1018.6
01 25.05 штиль 0 30 км н/о +8.9 +4.7 75 +8 +8 1018.8 1018.3
02 25.05 Ю 2 30 км н/о +8.3 +5.5 83 +7 +7 1018.2 1017.7
03 25.05 Ю 2 30 км н/о +8.4 +6.0 85 +6 +6 1018.0 1017.5
04 25.05 ЮЗ 4 40 км н/о +9.5 +5.8 78 +7 +7 1017.5 1017.0
05 25.05 ЮЗ 4 30 км слаб. морось с дождем н/о +9.4 +5.9 79 +7 +7 1017.2 1016.7
06 25.05 Ю 3 10 км дождь н/о +9.1 +6.7 85 +7 +7 1016.9 1016.4 +8.2 0.2
07 25.05 Ю 3 11 км дождь н/о +8.7 +7.0 89 +6 +6 1016.5 1016.0
08 25.05 Ю 5 9000 м дождь н/о +8.7 +7.2 90 +5 +5 1016.1 1015.6
09 25.05 Ю 6 10 км дождь н/о +9.3 +8.0 92 +5 +5 1015.5 1015.1
10 25.05 В 2 5000 м дождь н/о +9.2 +7.9 92 +8 +8 1015.1 1014.6
11 25.05 ЮВ 4 6000 м дождь н/о +9.8 +8.6 92 +7 +7 1014.1 1013.7
12 25.05 ЮВ 6 2400 м дождь н/о +9.8 +8.9 94 +6 +6 1013.3 1012.8 8
13 25.05 ЮВ 9 28 км в посл. час дождь н/о +10.6 +9.4 92 +6 +6 1011.8 1011.3
14 25.05 ЮВ 7
{13}
3500 м в посл. час дождь н/о +10.7 +9.6 93 +7 +7 1011.4 1010.9
15 25.05 В 6 4200 м слаб. дождь н/о +10.6 +9.8 95 +7 +7 1010.8 1010.4
16 25.05 З 4 2500 м дождь н/о +11.9 +11.4 97 +10 +10 1010.5 1010.0
17 25.05 З 5 1700 м ливневой дождь н/о +11.8 +11.3 97 +9 +9 1010.2 1009.8
18 25.05 СВ 5 9000 м в посл. час дождь н/о +10.5 +10.1 97 +8 +8 1010.4 1009.9 +12.0 14
19 25.05 СВ 8 6000 м слаб. ливневой дождь н/о +9.6 +9.3 98 +5 +5 1010.2 1009.7
20 25.05 В 9 8000 м дождь н/о +9.1 +8.8 98 +4 +4 1010.0 1009.5
21 25.05 В 9 4400 м слаб. дождь н/о +9.1 +8.7 97 +4 +4 1009.8 1009.3
22 25.05 В 9 3200 м слаб. дождь н/о +9.1 +8.7 97 +4 +4 1009.6 1009.1
23 25.05 В 8 2700 м дождь н/о +9.0 +8.6 97 +4 +4 1008.9 1008.4
00 26.05 В 8 3600 м слаб. дождь н/о +9.1 +8.8 98 +5 +5 1007.8 1007.3 11
01 26.05 В 8 3100 м дождь н/о +9.3 +9.0 98 +5 +5 1006.3 1005.9
02 26.05 В 6 10 км слаб. ливневой дождь н/о +9.8 +9.5 98 +6 +6 1004.9 1004.4
03 26.05 ЮВ 1 3600 м слаб. ливневой дождь н/о +10.1 +9.8 98 +9 +9 1004.1 1003.6
04 26.05 ЮЗ 5 1500 м в посл. час дождь н/о +11.4 +11.1 98 +9 +9 1003.1 1002.7
05 26.05 ЮЗ 7 600 м туман н/о +11.5 +11.2 98 +8 +8 1002.5 1002.1
06 26.05 З 8 1800 м в посл. час туман н/о +11.5 +11.3 99 +8 +8 1002.3 1001.8 +8.8 16
07 26.05 З 10
{13}
27 км дымка н/о +11.6 +11.4 99 +8 +8 1002.3 1001.9
08 26.05 З 9
{13}
18 км н/о +11.7 +11.5 99 +8 +8 1002.3 1001.8
09 26.05 З 10
{14}
4700 м дымка н/о +11.7 +11.2 97 +8 +8 1002.2 1001.7
10 26.05 З 11
{15}
11 км в посл. час дождь н/о +11.7 +10.9 95 +8 +8 1002.1 1001.6
11 26.05 З 14
{18}
5000 м слаб. ливневой дождь н/о +10.9 +10.0 94 +6 +6 1002.4 1001.9
12 26.05 З 14
{18}
5000 м слаб. дождь н/о +10.9 +9.9 94 +6 +6 1002.3 1001.8 1
13 26.05 З 12
{20}
3800 м слаб. морось н/о +10.8 +10.2 96 +6 +6 1002.3 1001.8
14 26.05 З 12
{18}
2100 м ливневой дождь н/о +10.3 +9.8 97 +5 +5 1001.7 1001.2
15 26.05 З 14-20
{20}
9000 м в посл. час дождь н/о +11.0 +9.8 92 +6 +6 1000.5 1000.0
16 26.05 СЗ 9
{20}
29 км н/о +11.3 +10.0 92 +7 +7 1000.7 1000.2
17 26.05 СЗ 8 28 км н/о +10.0 +8.1 88 +6 +6 1002.0 1001.5
18 26.05 С 7 60 км н/о +9.8 +7.6 86 +6 +6 1002.7 1002.3 +12.0 3
19 26.05 С 7 50 км слаб. морось с дождем н/о +8.9 +6.8 87 +5 +5 1003.5 1003.1
20 26.05 С 8 50 км в посл. час дождь н/о +8.7 +6.1 84 +4 +4 1003.9 1003.4
21 26.05 С 8 70 км н/о +8.6 +5.8 83 +4 +4 1004.8 1004.3
22 26.05 С 7 60 км н/о +8.4 +5.8 84 +4 +4 1005.4 1004.9
23 26.05 С 6 >70 км н/о +8.2 +5.2 81 +4 +4 1006.0 1005.5
00 27.05 С 4 60 км н/о +7.6 +5.0 84 +4 +4 1006.4 1006.0 0.0
01 27.05 С 5 35 км н/о +8.0 +5.3 83 +4 +4 1006.7 1006.2

 

Местоположение метеостанции Южный Уист (Великобритания): широта 57.33 долгота -7.37 высота над уровнем моря 4 м.

В архиве по умолчанию представлена погода на Южном Уисте за последнюю неделю. Архивные данные за месяц целиком и за предыдущие месяцы, начиная с января 2011 года, Вы можете получить, выбрав интересующий диапазон дат из раскрывающегося списка и нажав кнопку "Ввод!".


*Определитесь, кто Вы:
робот инопланетянин человек

Внимание! Время в таблицах - всемирное. Для получения местного времени необходимо прибавить поправку, которая равна 0 ч.

Смотрите также архив погоды в соседних городах и на ближайших метеорологических станциях:

Погода на Скае (Великобритания) (95 км)
Погода на Тири (Великобритания) (97 км)
Погода на Перевале Bealach Na Ba (Великобритания) (102 км)
Погода в Сторновее (Великобритания) (117 км)
Погода в Олтбее (Великобритания) (120 км)
Погода на Озере Гласкарнок (Великобритания) (155 км)
Погода на Горе Аонах Мор (Великобритания) (156 км)
Погода на Станции Tulloch Bridge (Великобритания) (169 км)
Погода в Порт-Эллене (Великобритания) (196 км)
Погода на Алтнахарре (Великобритания) (204 км)

Пояснения к столбцам:

Ветер - указаны скорость ветра в м/с - средняя за 10 мин, порывы в срок и между сроками (в фигурных скобках) и направление, откуда дует ветер: С - северный, СВ - северо-восточный, В - восточный, ЮВ - юго-восточный, Ю - южный, ЮЗ - юго-западный, З - западный, СЗ - северо-западный.
Видимость - горизонтальная дальность видимости в метрах или километрах. При видимости от 1 до 10 км при отсутствии осадков обычно наблюдается дымка, при ухудшении видимости до 1 км и менее - туман. В сухую погоду видимость может ухудшаться дымом, пылью или мглою.
Явления - указаны атмосферные явления, наблюдавшиеся в срок или в последний час перед сроком; фигурными скобками обозначены явления, наблюдавшиеся между сроками (за 1-3 часа до срока); квадратными скобками обозначены град или гололедные отложения с указанием их диаметра в мм.
Облачность - указаны через наклонную черту общая и нижняя облачность в баллах и высота нижней границы облаков в метрах; квадратными скобками обозначены формы облаков: Ci - перистые, Cs - перисто-слоистые, Cc - перисто-кучевые, Ac - высококучевые, As - высокослоистые, Sc - слоисто-кучевые, Ns - слоисто-дождевые, Cu - кучевые, Cb - кучево-дождевые. Подробнее классификацию облаков см. в Атласе облаков (PDF).
T - Температура воздуха - температура, измеренная на высоте 2 м над землей.
Td - Температура точки росы - температура, при понижении до которой содержащийся в воздухе водяной пар достигнет насыщения.
f - Относительная влажность воздуха - влажноcть воздуха, измеренная на высоте 2 м над землей.
Te - Эффективная температура - температура, которую ощущает одетый по сезону человек в тени. Характеристика душности погоды. При расчете учитывается влияние влажности воздуха и скорости ветра на теплоощущения человека.
Tes - Эффективная температура на солнце - температура, которую ощущает человек, с поправкой на солнечный нагрев. Характеристика знойности погоды. Зависит от высоты солнца над горизонтом, облачности и скорости ветра. Ночью, в пасмурную погоду, а также при ветре 12 м/с и более поправка равна нулю.
P - Атмосферное давление - приведенное к уровню моря атмосферное давление.
Po - Атмосферное давление - измеренное на уровне метеостанции атмосферное давление.
Tmin - Минимальная температура - минимум температуры воздуха на высоте 2 м над землей.
Tmax - Максимальная температура - максимум температуры воздуха на высоте 2 м над землей.
R - Количество осадков - Количество выпавших осадков за период времени, мм. При наведении курсора мыши на число - период времени, за который выпало указанное количество осадков.
R24 - Количество осадков - Количество выпавших осадков за 24 часа, мм.
S - Снежный покров - Высота снежного покрова, см. При наведении курсора мыши на число - состояние снежного покрова и степень покрытия местности в баллах.